Flag for China Weather past 2 weeks in Hohhot, Inner Mongolia, China

Now
25 °F

Haze.


Feels Like: 18 °F
Forecast: 5 / 28 °F
Wind: 6 mph from Southwest

Location: Hohhot Airport

Current Time: Dec 27, 2014 at 5:01:39 PM

Latest Report: Dec 27, 2014 at 4:00 PM


Visibility: 2 mi

Pressure: 30.27 "Hg

Humidity: 63%

Dew point: 14 °F

Location of HohhotLocation

Historic Weather in Hohhot — Graph

°F

Hohhot temperature yesterday

Maximum temperature yesterday: 30 °F (at 12:00 PM)
Minimum temperature yesterday: 12 °F (at 12:00 AM)
Average temperature yesterday: 21 °F

Past Weeks' High & Low Weather Summary

 TemperatureHumidityPressure
High30 °F (Dec 25, 3:00 PM)93% (Dec 26, 9:00 PM)30.48 "Hg (Dec 26, 9:00 PM)
Low-4 °F (Dec 13, 6:00 AM)24% (Dec 18, 4:00 PM)30.09 "Hg (Dec 23, 2:00 AM)
Average13 °F59%30.29 "Hg
* Reported Dec 12 4:00 PM — Dec 27 4:00 PM, Hohhot, Weather by CustomWeather, © 2014

Note: Actual official high and low records may vary slightly from our data, if they occured in-between our weather recording intervals... More about our weather records

Advertising

Hohhot weather history for previous 24 hours

 ConditionsComfort  
Time TempWeatherWind HumidityBarometerVisibility
4:00 PM
Dec 27
25 °FHaze.6 mph63%30.27 "Hg2 mi
3:00 PM27 °FClear.3 mph59%30.27 "Hg4 mi
2:00 PM27 °FClear.1 mph54%30.27 "Hg4 mi
1:00 PM25 °FClear.1 mph59%30.30 "Hg4 mi
12:00 PM23 °FClear.6 mph58%30.33 "Hg4 mi
11:00 AM21 °FIce fog.1 mph68%30.36 "Hg3 mi
10:00 AM19 °FIce fog.1 mph79%30.36 "Hg2 mi
9:00 AM18 °FIce fog.No wind86%30.36 "Hg2 mi
8:00 AM16 °FIce fog.1 mph93%30.33 "Hg2 mi
7:00 AM14 °FIce fog.1 mph92%30.33 "Hg2 mi
6:00 AM10 °FIce fog.3 mph92%30.33 "Hg2 mi
5:00 AM7 °FIce fog.3 mph92%30.30 "Hg3 mi
4:00 AM9 °FIce fog.3 mph92%30.33 "Hg3 mi
3:00 AM9 °FIce fog.8 mph85%30.33 "Hg3 mi
2:00 AM10 °FIce fog.6 mph85%30.30 "Hg3 mi
1:00 AM10 °FPassing clouds.3 mph92%30.30 "Hg4 mi
12:00 AM12 °FPassing clouds.1 mph92%30.30 "Hg4 mi
11:00 PM
Dec 26
14 °FPassing clouds.3 mph92%30.30 "Hg4 mi
10:00 PM19 °FIce fog.3 mph93%30.27 "Hg2 mi
9:00 PM21 °FIce fog.6 mph93%30.27 "Hg2 mi
8:00 PM25 °FIce fog.3 mph86%30.27 "Hg2 mi
7:00 PM25 °FLight snow. Ice fog.3 mph86%30.24 "Hg2 mi
6:00 PM25 °FLight snow. Ice fog.No wind86%30.24 "Hg2 mi
5:00 PM28 °FLight snow. Scattered clouds.3 mph69%30.24 "Hg2 mi
Weather by CustomWeather, © 2014

See weather overviewHow to use our weather pages